STARLINK-5098, 54013

Orbit data source: Space-Track

STARLINK-5098, 54013 is a payload satellite owned by SpaceX/Seattle (US) in LEO that was launched on Wed, 05 Oct 2022 UTC via an FALCON 9 launch vehicle from the Air Force Western Test Range (AFWTR). Payload-class satellites include a variety of spacecraft equipped with specific instruments for various scientific and technological missions. These include communications satellites like Starlink; space stations such as the ISS; scientific satellites like the Hubble; Earth observation satellites from companies like Planet Labs, Umbra, and HawkEye 360; GPS; miniature CubeSats for education and research; and military/defense satellites.

Loading next visibility...
Identifier
54013, 2022-125BB
Orbit
LEO
Country
Flag of USUS
Related business
Manufacturer
SpaceX/Seattle
Mission
Operational Commercial Communications
Bus & Motor
STARLINK, Unknown motor
Mass
305 kg wet, ~290 kg dry
Launch date (UTC)
2022-10-05 (4 years ago)
Launch vehicle
FALCON 9
Launch site
Air Force Western Test Range (AFWTR)
Object type
Payload
Rocket body
Debris
Shape & HBR
Box + 1 Pan, 10.1 m
Radar Cross Section
13.562 m², Large (>1 m²)

Expand to show TLE details & history
Last TLE update: 2 days ago

TLE from 2 days ago
0 STARLINK-5098
1 54013U 22125BB  26170.96496776  .00000181  00000-0  29435-4 0  9992
2 54013  53.1612 104.8339 0001198  85.9690 274.1438 15.08835227205048
Epoch: 2026-06-19T23:09Z
TLE epoch observation values (Epoch: 2026-06-19T23:09:33.214Z)
Latitude
-0.00005°
Longitude
-150.74091°
Altitude
540.59 km
Speed
7.593 km/s
True Right ascension
06h 59m 20s
True Declination
0° 00' 00"
Sunlit
Object was in daylight at epoch
Visualization orbit readout
Latitude
Unknown
Longitude
Unknown
Altitude
Unknown
Speed
Unknown
Apparent Right ascension
Unknown
Apparent Declination
Unknown
Sunlit
N/A
Visualization observer readout
Local Sidereal Time
21:28:00
Azimuth
Unknown
Elevation
Unknown
Doppler factor
Unknown
Orbital elements
Apogee altitude
540.841 km
Perigee altitude
539.183 km
Semi-major axis
6,918.149 km
Eccentricity
0.00012
Inclination
53.1612°
RAAN
104.8339°
Arg. of periapsis
85.969°
True anomaly
274.13011°
Mean anomaly
274.1438°
Eccentric anomaly
274.13695°
Mean motion
3.77188 °/min
Orbital period
95.44 mins
BSTAR
0.000029435
Loading maneuver chart data...
Computing Atmospheric mass density...
Loading historical data...
Loading historical data...
Loading historical data...
Loading historical data...
Loading historical data...
Loading historical data...
Loading historical data...

Documentation

Showing up to 5 results
|